EST,Max TemperatureF,Mean TemperatureF,Min TemperatureF,Max Dew PointF,MeanDew PointF,Min DewpointF,Max Humidity, Mean Humidity, Min Humidity, Max Sea Level PressureIn, Mean Sea Level PressureIn, Min Sea Level PressureIn, Max VisibilityMiles, Mean VisibilityMiles, Min VisibilityMiles, Max Wind SpeedMPH, Mean Wind SpeedMPH, Max Gust SpeedMPH,PrecipitationIn, CloudCover, Events, WindDirDegrees
2011-11-1,51,42,33,40,37,32,93,77,62,30.37,30.32,30.28,10,10,10,13,6,21,0.00,1,,41
2011-11-2,54,43,30,41,37,28,93,79,61,30.38,30.29,30.21,10,10,10,13,6,,0.00,0,,29
2011-11-3,59,44,30,47,38,28,100,84,60,30.20,30.06,29.90,10,10,7,18,4,25,0.00,0,,224
2011-11-4,51,48,44,49,36,23,93,66,37,30.18,29.98,29.86,10,10,8,20,11,31,0.00,4,,345
2011-11-5,48,38,26,31,29,24,92,64,52,30.48,30.36,30.19,10,10,10,21,13,31,0.00,4,,19
2011-11-6,54,39,24,40,32,21,92,76,48,30.52,30.45,30.36,10,10,10,17,4,25,0.00,0,,224
2011-11-7,57,50,44,49,45,41,93,80,62,30.34,30.26,30.19,10,10,10,21,10,29,0.00,1,,229
2011-11-8,66,55,44,49,45,42,93,74,44,30.25,30.22,30.19,10,9,1,9,4,,0.00,0,,276
2011-11-9,61,52,42,55,49,41,100,92,70,30.23,30.18,30.07,10,5,0,10,2,,0.00,3,Fog,175
2011-11-10,62,58,55,61,57,54,100,94,77,30.05,29.73,29.47,10,6,0,14,6,22,0.08,8,Fog-Rain,140
2011-11-11,57,50,42,57,41,26,100,75,43,29.87,29.51,29.40,10,10,5,21,10,34,0.07,5,Rain,299
2011-11-12,53,44,36,42,34,27,76,60,43,30.12,30.04,29.90,10,10,10,26,13,39,0.00,0,,241
2011-11-13,60,48,37,52,46,35,96,80,69,30.19,30.10,30.00,10,10,6,18,6,26,0.00,0,,201
2011-11-14,63,60,57,55,52,50,90,79,65,29.99,29.89,29.78,10,10,8,25,20,40,0.00,1,,219
2011-11-15,64,60,55,55,55,52,96,83,63,29.97,29.81,29.73,10,9,7,22,13,28,0.00,5,Rain,226
2011-11-16,57,55,53,56,54,52,100,97,90,29.96,29.81,29.66,10,5,1,12,3,18,0.57,8,Rain,175
2011-11-17,54,46,37,54,41,33,100,84,56,29.88,29.74,29.67,10,10,2,21,9,28,0.21,8,Rain,329
2011-11-18,45,36,28,28,24,20,88,58,37,30.42,30.23,29.94,10,9,2,15,10,26,0.00,0,,290
2011-11-19,54,40,27,48,38,24,89,74,59,30.41,30.35,30.24,10,10,10,23,10,36,0.00,0,,220
2011-11-20,61,58,54,52,50,48,86,79,68,30.22,30.09,30.02,10,10,10,29,20,44,0.00,2,,229
2011-11-21,55,42,28,49,38,27,93,79,63,30.35,30.24,30.06,10,10,10,16,9,23,0.02,4,Rain,31
2011-11-22,46,36,26,41,32,24,93,77,56,30.40,30.34,30.19,10,10,7,7,1,,0.09,1,Rain,106
2011-11-23,60,50,39,59,46,34,100,90,79,30.11,29.74,29.51,10,6,2,28,15,40,1.78,8,Rain,33
2011-11-24,42,35,28,34,30,26,92,75,61,30.18,30.06,29.87,10,10,10,22,12,33,0.00,4,,3
2011-11-25,55,42,28,46,39,26,92,79,66,30.13,30.07,30.01,10,10,9,17,5,25,0.00,0,,234
2011-11-26,63,51,37,43,41,36,97,71,38,30.21,30.14,30.06,10,10,9,12,6,,0.00,0,,258
2011-11-27,57,47,37,52,43,36,100,93,74,30.23,30.19,30.14,10,6,0,14,2,17,0.00,2,Fog,195
2011-11-28,61,54,48,52,50,47,97,82,67,30.17,30.14,30.12,10,10,9,16,11,,0.00,1,,219
2011-11-29,66,58,51,55,52,48,97,83,56,30.14,30.01,29.74,10,10,2,14,6,28,0.00,6,,140
2011-11-30,60,54,46,57,47,34,100,80,56,29.84,29.69,29.64,10,9,3,26,13,37,0.24,7,Rain,227